Villa Grove, CO

9:12 PM MDT on September 25, 2016 (GMT -0600)
Monarch Pass

Weather History for KMYP - October, 2012

Change the Weather History Date:

Wednesday, October 31, 2012

  Actual Average (KGUC) Record (KGUC)
Temperature  
Mean Temperature 37 °F -  
Max Temperature 44 °F 47 °F 60 °F (1999)
Min Temperature 30 °F 19 °F 15 °F (2006)
Degree Days  
Heating Degree Days 28    
Moisture  
Dew Point 12 °F    
Average Humidity 38    
Maximum Humidity 60    
Minimum Humidity 21    
Precipitation  
Precipitation 0.00 in - - ()
Sea Level Pressure  
Sea Level Pressure 30.57 in    
Wind  
Wind Speed 8 mph (WSW)    
Max Wind Speed 16 mph    
Max Gust Speed 17 mph    
Averages and records for this station are not official NWS values.
T = Trace of Precipitation, MM = Missing Value Source: NWS Daily Summary

Daily Weather History Graph

Daily Weather History Graph

Search for Another Location

Airport or City:

Trip Planner

Search our weather history database for the weather conditions in past years. The results will help you decide how hot, cold, wet, or windy it might be!

Date:

Astronomy

Oct. 31, 2012 Rise Set
Actual Time 7:31 AM MDT 6:05 PM MDT
Civil Twilight 7:03 AM MDT 6:33 PM MDT
Nautical Twilight 6:32 AM MDT 7:04 PM MDT
Astronomical Twilight 6:01 AM MDT 7:35 PM MDT
Moon 7:20 PM MDT (10/31) 9:13 AM MDT (10/31)
Length of Visible Light 11h 29m
Length of Day
10h 34m
Full, 97% of the Moon is Illuminated
Oct 31
Full
Nov 6
Last Quarter
Nov 13
New
Nov 20
First Quarter
Nov 28
Full

Hourly Weather History & Observations

Time (MDT) Temp. Windchill Dew Point Humidity Pressure Visibility Wind Dir Wind Speed Gust Speed Precip Events Conditions
12:14 AM 32.0 °F 24.2 °F 15.8 °F 51% 30.56 in - ENE 9.2 mph - N/A   Clear
12:34 AM 32.0 °F 26.4 °F 14.0 °F 48% 30.56 in - ENE 5.8 mph - N/A   Clear
12:54 AM 32.0 °F 28.7 °F 14.0 °F 48% 30.56 in - East 3.5 mph - N/A   Clear
1:14 AM 33.8 °F - 15.8 °F 48% 30.56 in - Calm Calm - N/A   Clear
1:54 AM 32.0 °F 21.6 °F 15.8 °F 51% 30.56 in - WSW 15.0 mph - N/A   Clear
2:14 AM 32.0 °F 23.0 °F 15.8 °F 51% 30.56 in - West 11.5 mph - N/A   Clear
2:34 AM 32.0 °F 23.0 °F 15.8 °F 51% 30.56 in - West 11.5 mph - N/A   Clear
2:54 AM 32.0 °F 23.0 °F 14.0 °F 48% 30.56 in - West 11.5 mph - N/A   Clear
3:34 AM 32.0 °F 22.5 °F 14.0 °F 48% 30.55 in - WNW 12.7 mph - N/A   Clear
3:54 AM 32.0 °F 23.0 °F 14.0 °F 48% 30.55 in - WNW 11.5 mph - N/A   Clear
4:14 AM 32.0 °F 23.0 °F 14.0 °F 48% 30.55 in - West 11.5 mph - N/A   Clear
4:34 AM 32.0 °F 24.2 °F 14.0 °F 48% 30.54 in - WSW 9.2 mph - N/A   Clear
4:54 AM 32.0 °F 23.6 °F 14.0 °F 48% 30.54 in - West 10.4 mph - N/A   Clear
5:14 AM 30.2 °F 24.3 °F 17.6 °F 60% 30.55 in - SW 5.8 mph - N/A   Clear
5:34 AM 32.0 °F - 14.0 °F 48% 30.55 in - Calm Calm - N/A   Clear
6:14 AM 33.8 °F - 6.8 °F 32% 30.55 in - Calm Calm - N/A   Clear
6:34 AM 32.0 °F - 8.6 °F 38% 30.56 in - Calm Calm - N/A   Clear
6:54 AM 32.0 °F - 8.6 °F 38% 30.56 in - Calm Calm - N/A   Clear
7:14 AM 32.0 °F - 8.6 °F 38% 30.56 in - Calm Calm - N/A   Clear
7:34 AM 32.0 °F - 8.6 °F 38% 30.56 in - Calm Calm - N/A   Clear
7:54 AM 32.0 °F 26.4 °F 8.6 °F 38% 30.56 in - West 5.8 mph - N/A   Clear
8:14 AM 32.0 °F 27.5 °F 10.4 °F 41% 30.57 in - WSW 4.6 mph - N/A   Clear
8:34 AM 32.0 °F 25.6 °F 10.4 °F 41% 30.58 in - West 6.9 mph - N/A   Clear
8:54 AM 32.0 °F 25.6 °F 10.4 °F 41% 30.58 in - West 6.9 mph - N/A   Clear
9:14 AM 32.0 °F 26.4 °F 12.2 °F 44% 30.58 in - West 5.8 mph - N/A   Clear
9:34 AM 33.8 °F - 8.6 °F 35% 30.58 in - Calm Calm - N/A   Clear
9:54 AM 35.6 °F - 12.2 °F 38% 30.58 in - Calm Calm - N/A   Clear
10:14 AM 37.4 °F - 10.4 °F 33% 30.58 in - Calm Calm - N/A   Clear
10:34 AM 37.4 °F - 14.0 °F 38% 30.58 in - Calm Calm - N/A   Clear
10:54 AM 35.6 °F 30.7 °F 15.8 °F 44% 30.59 in - SSW 5.8 mph - N/A   Clear
11:14 AM 37.4 °F 34.9 °F 15.8 °F 41% 30.60 in - SSW 3.5 mph - N/A   Clear
11:34 AM 37.4 °F 32.1 °F 14.0 °F 38% 30.60 in - SSW 6.9 mph - N/A   Clear
11:54 AM 39.2 °F 34.2 °F 15.8 °F 39% 30.60 in - SSW 6.9 mph - N/A   Clear
12:14 PM 39.2 °F 33.6 °F 17.6 °F 42% 30.59 in - West 8.1 mph - N/A   Clear
12:34 PM 39.2 °F 32.0 °F 17.6 °F 42% 30.58 in - West 11.5 mph - N/A   Clear
12:54 PM 41.0 °F 33.9 °F 17.6 °F 39% 30.58 in - West 12.7 mph - N/A   Clear
1:14 PM 41.0 °F 35.8 °F 17.6 °F 39% 30.58 in - West 8.1 mph - N/A   Clear
1:34 PM 41.0 °F 34.7 °F 15.8 °F 36% 30.58 in - SW 10.4 mph 16.1 mph N/A   Clear
1:54 PM 42.8 °F 36.6 °F 15.8 °F 34% 30.56 in - West 11.5 mph - N/A   Clear
2:14 PM 42.8 °F 36.2 °F 15.8 °F 34% 30.56 in - WSW 12.7 mph - N/A   Clear
2:34 PM 44.6 °F 38.8 °F 15.8 °F 31% 30.56 in - WSW 11.5 mph 17.3 mph N/A   Clear
2:54 PM 44.6 °F 39.2 °F 14.0 °F 29% 30.56 in - West 10.4 mph - N/A   Clear
3:14 PM 44.6 °F 38.8 °F 14.0 °F 29% 30.56 in - SW 11.5 mph 17.3 mph N/A   Clear
3:34 PM 44.6 °F 38.4 °F 12.2 °F 27% 30.56 in - SW 12.7 mph - N/A   Clear
3:54 PM 44.6 °F 38.4 °F 12.2 °F 27% 30.56 in - SW 12.7 mph - N/A   Clear
4:14 PM 44.6 °F 38.8 °F 8.6 °F 23% 30.56 in - SSW 11.5 mph - N/A   Clear
4:34 PM 44.6 °F 38.4 °F 6.8 °F 21% 30.56 in - SW 12.7 mph - N/A   Clear
4:54 PM 44.6 °F 37.4 °F 10.4 °F 25% 30.56 in - SW 16.1 mph - N/A   Clear
5:14 PM 42.8 °F 36.2 °F 10.4 °F 27% 30.56 in - WSW 12.7 mph - N/A   Clear
5:34 PM 41.0 °F 33.9 °F 8.6 °F 26% 30.56 in - WSW 12.7 mph - N/A   Clear
5:54 PM 41.0 °F 34.3 °F 8.6 °F 26% 30.56 in - WSW 11.5 mph - N/A   Clear
6:14 PM 37.4 °F 31.4 °F 8.6 °F 30% 30.56 in - WSW 8.1 mph - N/A   Clear
6:34 PM 37.4 °F 32.8 °F 8.6 °F 30% 30.56 in - West 5.8 mph - N/A   Clear
6:54 PM 37.4 °F 31.4 °F 8.6 °F 30% 30.57 in - WSW 8.1 mph - N/A   Clear
7:14 PM 35.6 °F 27.5 °F 8.6 °F 33% 30.57 in - SW 11.5 mph - N/A   Clear
7:34 PM 35.6 °F 27.5 °F 8.6 °F 33% 30.58 in - SW 11.5 mph - N/A   Clear
7:54 PM 35.6 °F 27.1 °F 10.4 °F 35% 30.58 in - SW 12.7 mph - N/A   Clear
8:14 PM 35.6 °F 27.1 °F 8.6 °F 33% 30.57 in - SW 12.7 mph - N/A   Clear
8:34 PM 35.6 °F 26.6 °F 10.4 °F 35% 30.57 in - SSW 13.8 mph - N/A   Clear
8:54 PM 35.6 °F 26.6 °F 10.4 °F 35% 30.56 in - SW 13.8 mph - N/A   Clear
9:14 PM 35.6 °F 26.6 °F 10.4 °F 35% 30.56 in - SW 13.8 mph - N/A   Clear
9:34 PM 35.6 °F 27.1 °F 10.4 °F 35% 30.57 in - SW 12.7 mph - N/A   Clear
9:54 PM 35.6 °F 26.6 °F 10.4 °F 35% 30.57 in - SW 13.8 mph - N/A   Clear
10:14 PM 35.6 °F 27.1 °F 10.4 °F 35% 30.58 in - SW 12.7 mph - N/A   Clear
10:34 PM 35.6 °F 26.6 °F 10.4 °F 35% 30.58 in - SW 13.8 mph - N/A   Clear
10:54 PM 33.8 °F 24.3 °F 8.6 °F 35% 30.58 in - SW 13.8 mph - N/A   Clear
11:14 PM 33.8 °F 25.3 °F 10.4 °F 38% 30.57 in - WSW 11.5 mph - N/A   Clear
11:34 PM 33.8 °F 27.0 °F 10.4 °F 38% 30.57 in - WSW 8.1 mph - N/A   Clear
11:54 PM 33.8 °F 25.8 °F 10.4 °F 38% 30.57 in - WSW 10.4 mph - N/A   Clear